Location: *
(43.9905°S, 176.4941°W)
Time: 23:29:23
(UTC+00:00)

BREEZE-M DEB (TANK) - Pass Details

Date: 08 December 2019
Orbit: 273 x 20466 km, 49.3° (Epoch: 18 January)

Event Time Altitude Azimuth Distance (km) Brightness Sun altitude
Rises 08:41:13 0° 245° (WSW) 1,979 7.0 -12.0°
Reaches altitude 10° 08:42:53 10° 231° (SW) 1,140 5.9 -12.2°
Maximum altitude 08:44:45 30° 163° (SSE) 655 3.6 -12.4°
Drops below altitude 10° 08:47:48 10° 97° (E) 1,887 5.2 -12.8°
Enters shadow 08:50:02 - 90° (E) 3,032 6.2 -13.1°
